Petersburg, AK

11:20 PM AKST on February 24, 2017 (GMT -0900)
Johnson Petersburg

Weather History for PAPG - November, 2013

Change the Weather History Date:

Monday, November 25, 2013

  Actual Average Record
Temperature  
Mean Temperature 40 °F -  
Max Temperature 48 °F 37 °F 50 °F (1992)
Min Temperature 33 °F 30 °F 3 °F (2006)
Degree Days  
Heating Degree Days 24    
Moisture  
Dew Point 34 °F    
Average Humidity 79    
Maximum Humidity 93    
Minimum Humidity 43    
Precipitation  
Precipitation 0.17 in - - ()
Sea Level Pressure  
Sea Level Pressure 29.98 in    
Wind  
Wind Speed 4 mph (South)    
Max Wind Speed 15 mph    
Max Gust Speed 22 mph    
Visibility 8 miles    
Events Rain    
Averages and records for this station are not official NWS values.
T = Trace of Precipitation, MM = Missing Value Source: NWS Daily Summary

Daily Weather History Graph

Daily Weather History Graph

Search for Another Location

Airport or City:

Trip Planner

Search our weather history database for the weather conditions in past years. The results will help you decide how hot, cold, wet, or windy it might be!

Date:

Astronomy

Nov. 25, 2013 Rise Set
Actual Time 7:53 AM AKST 3:23 PM AKST
Civil Twilight 7:07 AM AKST 4:09 PM AKST
Nautical Twilight 6:19 AM AKST 4:57 PM AKST
Astronomical Twilight 5:33 AM AKST 5:43 PM AKST
Moon 11:50 PM AKST 12:24 PM AKST
Length of Visible Light 9h 01m
Length of Day
7h 30m
Waning Gibbous, 49% of the Moon is Illuminated
Nov 25
Waning Gibbous
Dec 2
New
Dec 9
First Quarter
Dec 17
Full
Dec 25
Last Quarter

Hourly Weather History & Observations

Time (AKST) Temp. Windchill Dew Point Humidity Pressure Visibility Wind Dir Wind Speed Gust Speed Precip Events Conditions
12:36 AM 33.8 °F - 30.2 °F 87% 30.11 in 7.0 mi Calm Calm - N/A   Overcast
12:56 AM 33.8 °F - 32.0 °F 93% 30.11 in 6.0 mi Calm Calm - N/A   Overcast
1:16 AM 33.8 °F 27.7 °F 32.0 °F 93% 30.11 in 10.0 mi SSW 6.9 mph - N/A   Overcast
1:56 AM 35.6 °F - 32.0 °F 87% 30.12 in 10.0 mi Calm Calm - 0.03 in   Overcast
2:16 AM 35.6 °F - 33.8 °F 93% 30.12 in 7.0 mi Calm Calm - 0.02 in   Overcast
2:36 AM 35.6 °F - 33.8 °F 93% 30.11 in 5.0 mi Calm Calm - 0.05 in   Overcast
2:56 AM 37.4 °F 33.8 °F 35.6 °F 93% 30.08 in 10.0 mi South 4.6 mph - 0.06 in   Mostly Cloudy
3:16 AM 37.4 °F 30.3 °F 35.6 °F 93% 30.07 in 10.0 mi NNE 10.4 mph - N/A   Overcast
3:36 AM 37.4 °F 32.8 °F 35.6 °F 93% 30.08 in 10.0 mi NE 5.8 mph - N/A   Overcast
4:16 AM 35.6 °F 31.7 °F 33.8 °F 93% 30.06 in 10.0 mi SW 4.6 mph - N/A   Overcast
4:56 AM 35.6 °F - 33.8 °F 93% 30.04 in 10.0 mi Calm Calm - N/A   Overcast
5:36 AM 37.4 °F - 33.8 °F 87% 30.03 in 10.0 mi Calm Calm - N/A   Overcast
5:56 AM 37.4 °F 33.8 °F 33.8 °F 87% 30.02 in 10.0 mi NE 4.6 mph - N/A   Overcast
6:16 AM 37.4 °F - 33.8 °F 87% 30.02 in 10.0 mi Calm Calm - N/A   Overcast
6:36 AM 37.4 °F - 33.8 °F 87% 29.99 in 10.0 mi Calm Calm - N/A   Overcast
6:56 AM 39.2 °F 37.0 °F 35.6 °F 87% 29.95 in 10.0 mi ESE 3.5 mph - N/A   Overcast
7:16 AM 37.4 °F - 33.8 °F 87% 29.95 in 10.0 mi Calm Calm - N/A   Overcast
7:36 AM 37.4 °F 34.9 °F 33.8 °F 87% 29.95 in 10.0 mi SW 3.5 mph - N/A   Overcast
7:56 AM 37.4 °F 31.4 °F 33.8 °F 87% 29.94 in 10.0 mi WSW 8.1 mph - N/A   Overcast
8:16 AM 37.4 °F 32.1 °F 33.8 °F 87% 29.93 in 10.0 mi WNW 6.9 mph - N/A   Overcast
8:56 AM 37.4 °F 34.9 °F 33.8 °F 87% 29.93 in 10.0 mi NNE 3.5 mph - N/A   Overcast
9:16 AM 39.2 °F 35.9 °F 33.8 °F 81% 29.93 in 10.0 mi West 4.6 mph - N/A   Overcast
9:36 AM 44.6 °F 40.7 °F 33.8 °F 66% 29.92 in 10.0 mi ESE 6.9 mph - N/A   Overcast
10:16 AM 46.4 °F 40.1 °F 28.4 °F 50% 29.91 in 10.0 mi South 15.0 mph 18.4 mph N/A   Overcast
10:36 AM 48.2 °F - 28.4 °F 46% 29.88 in 10.0 mi SE 11.5 mph 17.3 mph N/A   Overcast
10:56 AM 48.2 °F - 26.6 °F 43% 29.90 in 10.0 mi SSE 5.8 mph 19.6 mph N/A   Overcast
11:16 AM 48.2 °F - 26.6 °F 43% 29.91 in 10.0 mi SE 11.5 mph 18.4 mph N/A   Overcast
11:36 AM 48.2 °F - 26.6 °F 43% 29.88 in 10.0 mi East 12.7 mph 19.6 mph N/A   Overcast
11:56 AM 48.2 °F - 26.6 °F 43% 29.89 in 10.0 mi SE 3.5 mph - N/A   Overcast
12:16 PM 48.2 °F - 26.6 °F 43% 29.90 in 10.0 mi South 9.2 mph 17.3 mph N/A   Overcast
12:55 PM 46.4 °F 41.9 °F 32.0 °F 57% 29.92 in 10.0 mi SSW 9.2 mph 21.9 mph N/A Rain Light Rain
1:16 PM 44.6 °F 43.1 °F 33.8 °F 66% 29.93 in 10.0 mi ESE 3.5 mph - N/A   Overcast
1:36 PM 44.6 °F 41.4 °F 35.6 °F 71% 29.92 in 10.0 mi West 5.8 mph - N/A   Overcast
1:56 PM 42.8 °F - 35.6 °F 76% 29.93 in 4.0 mi Calm Calm - N/A   Overcast
2:16 PM 41.0 °F 35.2 °F 35.6 °F 81% 29.93 in 4.0 mi NNW 9.2 mph - N/A   Overcast
2:36 PM 42.8 °F 40.1 °F 37.4 °F 81% 29.94 in 4.0 mi WSW 4.6 mph - N/A   Overcast
2:55 PM 42.8 °F 38.6 °F 37.4 °F 81% 29.95 in 5.0 mi ESE 6.9 mph - N/A Rain Light Rain
3:36 PM 41.0 °F 35.2 °F 35.6 °F 81% 29.96 in 5.0 mi East 9.2 mph 17.3 mph N/A   Overcast
3:56 PM 41.0 °F 35.8 °F 35.6 °F 81% 29.96 in 5.0 mi ENE 8.1 mph - N/A   Overcast
4:16 PM 41.0 °F 39.0 °F 35.6 °F 81% 29.96 in 5.0 mi East 3.5 mph - N/A   Overcast
4:36 PM 41.0 °F 36.4 °F 35.6 °F 81% 29.96 in 5.0 mi ESE 6.9 mph 16.1 mph N/A   Overcast
4:55 PM 41.0 °F - 35.6 °F 81% 29.96 in 5.0 mi Calm Calm - N/A Rain Light Rain
5:16 PM 41.0 °F - 35.6 °F 81% 29.96 in 5.0 mi Calm Calm - N/A   Overcast
5:36 PM 42.8 °F 37.0 °F 37.4 °F 81% 29.96 in 5.0 mi ESE 10.4 mph - N/A   Overcast
5:56 PM 42.8 °F - 35.6 °F 76% 29.96 in 7.0 mi Calm Calm - N/A   Overcast
6:16 PM 41.0 °F - 35.6 °F 81% 29.96 in 7.0 mi Calm Calm - N/A   Overcast
6:56 PM 42.8 °F 39.3 °F 35.6 °F 76% 29.97 in 7.0 mi SSE 5.8 mph - 0.02 in   Overcast
7:16 PM 42.8 °F 40.1 °F 37.4 °F 81% 29.97 in 7.0 mi West 4.6 mph - 0.01 in   Overcast
7:36 PM 42.8 °F 40.1 °F 37.4 °F 81% 29.97 in 7.0 mi South 4.6 mph - 0.02 in   Overcast
7:55 PM 42.8 °F 40.1 °F 37.4 °F 81% 29.97 in 7.0 mi WNW 4.6 mph - N/A Rain Light Rain
8:16 PM 42.8 °F - 37.4 °F 81% 29.98 in 7.0 mi Calm Calm - N/A   Overcast
8:36 PM 42.8 °F - 37.4 °F 81% 29.98 in 7.0 mi Calm Calm - N/A   Overcast
8:56 PM 42.8 °F - 37.4 °F 81% 29.99 in 7.0 mi Calm Calm - N/A   Overcast
9:16 PM 42.8 °F 41.1 °F 37.4 °F 81% 29.99 in 7.0 mi West 3.5 mph - N/A   Overcast
9:36 PM 42.8 °F 38.0 °F 37.4 °F 81% 29.99 in 7.0 mi WSW 8.1 mph - N/A   Overcast
9:56 PM 41.0 °F - 37.4 °F 87% 29.99 in 7.0 mi Calm Calm - 0.01 in   Overcast
10:16 PM 41.0 °F 39.0 °F 37.4 °F 87% 30.00 in 10.0 mi SW 3.5 mph - N/A   Overcast
10:36 PM 41.0 °F - 37.4 °F 87% 30.01 in 10.0 mi Calm Calm - N/A   Overcast
10:56 PM 41.0 °F 38.0 °F 37.4 °F 87% 30.01 in 10.0 mi WSW 4.6 mph - 0.01 in   Overcast
11:16 PM 39.2 °F 35.0 °F 37.4 °F 93% 30.02 in 10.0 mi South 5.8 mph - N/A   Overcast
11:36 PM 39.2 °F 35.0 °F 37.4 °F 93% 30.02 in 9.0 mi West 5.8 mph - 0.02 in   Overcast
11:56 PM 39.2 °F 35.9 °F 37.4 °F 93% 30.02 in 9.0 mi WSW 4.6 mph - 0.02 in   Overcast